Home   Weather   Campbell River   Past weeks

Flag for Canada Past Weather in Campbell River, British Columbia, Canada — Yesterday and Last 2 Weeks

Now
25 °F

Partly sunny.


Feels Like: 25 °F
Forecast: 20 / 30 °F
Wind: 2 mph from North

Location: Campbell River Airport

Current Time: Dec 8, 2016 at 10:22:10 am

Latest Report: Dec 8, 2016 at 10:00 am


Visibility: 30 mi

Pressure: 30.18 "Hg

Humidity: 86%

Dew Point: 21 °F

Location of Campbell RiverLocation

Past Weather in Campbell River — Graph

°F

Campbell River Temperature Yesterday

Maximum temperature yesterday: 30 °F (at 2:00 pm)
Minimum temperature yesterday: 19 °F (at 7:00 pm)
Average temperature yesterday: 24 °F

High & Low Weather Summary for the Past Weeks

 TemperatureHumidityPressure
High48 °F (Nov 30, 1:00 pm)100% (Nov 23, 9:00 am)30.51 "Hg (Nov 23, 9:00 am)
Low19 °F (Dec 7, 7:00 pm)61% (Dec 4, 1:00 pm)29.45 "Hg (Nov 27, 4:00 pm)
Average37 °F92%29.97 "Hg
* Reported Nov 23 9:00 am — Dec 8 9:00 am, Campbell River, Weather by CustomWeather, © 2016

Note: Actual official high and low records may vary slightly from our data, if they occured in-between our weather recording intervals... More about our weather records

Advertising

Campbell River Weather History for the Previous 24 Hours

Scroll right to see more
 ConditionsComfort  
Time TempWeatherWind HumidityBarometerVisibility
9:00 am
Thu, Dec 8
23 °FPartly sunny.2 mph86%30.19 "Hg30 mi
8:00 am23 °FPassing clouds.2 mph86%30.21 "Hg30 mi
7:00 am23 °FPassing clouds.3 mph86%30.24 "Hg15 mi
6:00 am25 °FPassing clouds.3 mph86%30.26 "Hg15 mi
9:00 pm
Wed, Dec 7
19 °FPassing clouds.2 mph86%30.40 "Hg15 mi
8:00 pm19 °FPassing clouds.3 mph93%30.42 "Hg15 mi
7:00 pm19 °FPassing clouds.3 mph93%30.43 "Hg15 mi
6:00 pm21 °FPassing clouds.2 mph93%30.44 "Hg15 mi
5:00 pm25 °FPassing clouds.2 mph93%30.45 "Hg30 mi
4:00 pm27 °FPassing clouds.2 mph86%30.46 "Hg30 mi
3:00 pm30 °FScattered clouds.3 mph69%30.47 "Hg30 mi
2:00 pm30 °FPartly sunny.3 mph75%30.48 "Hg30 mi
1:00 pm28 °FPartly sunny.5 mph80%30.49 "Hg30 mi
12:00 pm28 °FPartly sunny.5 mph80%30.50 "Hg30 mi
11:00 am27 °FPartly sunny.3 mph86%30.51 "Hg30 mi
10:00 am25 °FPartly sunny.3 mph93%30.50 "Hg30 mi
Weather by CustomWeather, © 2016

See weather overviewHow to use our weather pages